METEOR 2-5 DEB, 28555

Orbit data source: Space-Track

METEOR 2-5 DEB, 28555 is space debris in LEO originally from a launch on Wed, 31 Oct 1979 UTC launched from the Plesetsk Missile And Space Complex (PKMTR). Debris objects in space refer to the collection of defunct objects orbiting the Earth. Examples of debris include non-operational satellites, rocket bodies, and fragments generated from explosions, collisions, or faulty payload assembly.

Loading next visibility...
Identifier
28555, 1979-095D
Orbit
LEO
Country
Flag of CISCIS
Related business
Manufacturer
Unknown
Mission
Spacecraft
Bus & Motor
Unknown
Mass
Unknown
Launch date (UTC)
1979-10-31 (46 years ago)
Launch vehicle
Unknown
Launch site
Plesetsk Missile And Space Complex (PKMTR)
Object type
Payload
Rocket body
Debris
Shape & HBR
Unknown shape, 0.1 m
Radar Cross Section
Small (<0.1 m²)

Expand to show TLE details & history
Last TLE update: 4 days ago

TLE from 4 days ago
0 METEOR 2-5 DEB
1 28555U 79095D   25351.01642196  .00049663  00000-0  43924-2 0  9992
2 28555  81.1679  88.7696 0012808 248.3200 111.6654 14.96008566220341
Epoch: 2025-12-17T00:23Z
TLE epoch observation values (Epoch: 2025-12-17T00:23:38.857Z)
Latitude
-0.00004°
Longitude
-3.03465°
Altitude
585.558 km
Speed
7.566 km/s
True Right ascension
05h 55m 04s
True Declination
0° 00' 00"
Sunlit
Object was in full shadow at epoch
Visualization orbit readout
Latitude
Unknown
Longitude
Unknown
Altitude
Unknown
Speed
Unknown
Apparent Right ascension
Unknown
Apparent Declination
Unknown
Sunlit
N/A
Visualization observer readout
Local Sidereal Time
01:13:07
Azimuth
Unknown
Elevation
Unknown
Doppler factor
Unknown
Orbital elements
Apogee altitude
585.215 km
Perigee altitude
567.401 km
Semi-major axis
6,954.445 km
Eccentricity
0.00128
Inclination
81.1679°
RAAN
88.7696°
Arg. of periapsis
248.32°
True anomaly
111.80172°
Mean anomaly
111.6654°
Eccentric anomaly
111.73357°
Mean motion
3.74239 °/min
Orbital period
96.2 mins
BSTAR
0.0043924
Loading maneuver chart data...
Computing Atmospheric mass density...

Documentation

Showing up to 5 results
|